CZ-4B DEB, 57397

Orbit data source: Space-Track

CZ-4B DEB, 57397 is space debris in SSO originally from a launch on Wed, 24 Oct 2018 UTC launched from the Taiyaun Space Center, China (TSC). Debris objects in space refer to the collection of defunct objects orbiting the Earth. Examples of debris include non-operational satellites, rocket bodies, and fragments generated from explosions, collisions, or faulty payload assembly.

Loading next visibility...
Identifier
57397, 2018-081Q
Orbit
SSO
Country
Flag of CNCN / PRC
Related business
Manufacturer
Unknown
Mission
Spacecraft
Bus & Motor
Unknown
Mass
Unknown
Launch date (UTC)
2018-10-24 (7 years ago)
Launch vehicle
Unknown
Launch site
Taiyaun Space Center, China (TSC)
Object type
Payload
Rocket body
Debris
Shape & HBR
Unknown shape, 0.1 m
Radar Cross Section
Small (<0.1 m²)

Expand to show TLE details & history
Last TLE update: 3 days ago

TLE from 3 days ago
0 CZ-4B DEB
1 57397U 18081Q   26034.53283495  .00002531  00000-0  66712-3 0  9999
2 57397  99.3705 309.5502 0194330 268.5348  89.3570 14.39449847147766
Epoch: 2026-02-03T12:47Z
TLE epoch observation values (Epoch: 2026-02-03T12:47:16.939Z)
Latitude
-0.00002°
Longitude
-15.98278°
Altitude
764.376 km
Speed
7.472 km/s
True Right ascension
20h 38m 12s
True Declination
0° 00' 00"
Sunlit
Object was in daylight at epoch
Visualization orbit readout
Latitude
Unknown
Longitude
Unknown
Altitude
Unknown
Speed
Unknown
Apparent Right ascension
Unknown
Apparent Declination
Unknown
Sunlit
N/A
Visualization observer readout
Local Sidereal Time
22:24:10
Azimuth
Unknown
Elevation
Unknown
Doppler factor
Unknown
Orbital elements
Apogee altitude
896.147 km
Perigee altitude
618.814 km
Semi-major axis
7,135.618 km
Eccentricity
0.01943
Inclination
99.3705°
RAAN
309.5502°
Arg. of periapsis
268.5348°
True anomaly
91.58376°
Mean anomaly
89.357°
Eccentric anomaly
90.47039°
Mean motion
3.60077 °/min
Orbital period
99.98 mins
BSTAR
0.00066712
Loading maneuver chart data...
Computing Atmospheric mass density...
Loading historical data...
Loading historical data...
Loading historical data...
Loading historical data...
Loading historical data...
Loading historical data...
Loading historical data...

Documentation

Showing up to 5 results
|